Weather History for Shishmaref, AK

Change the Weather History Date:

Thursday, February 21, 2013

  Actual Average Record
Temperature  
Mean Temperature -18 °F -  
Max Temperature -14 °F 2 °F 26 °F (2001)
Min Temperature -23 °F -4 °F -27 °F (2009)
Degree Days  
Heating Degree Days 84    
Moisture  
Dew Point -25 °F    
Average Humidity 76    
Maximum Humidity 100    
Minimum Humidity 53    
Precipitation  
Precipitation 0.00 in - - ()
Sea Level Pressure  
Sea Level Pressure 29.70 in    
Wind  
Wind Speed 6 mph (NNE)    
Max Wind Speed 10 mph    
Max Gust Speed -    
Visibility 10 miles    
Events      
Averages and records for this station are not official NWS values.
T = Trace of Precipitation, MM = Missing Value Source: NWS Daily Summary

Daily Weather History Graph

Daily Weather History Graph

Search for Another Location

Airport:

Trip Planner

Search our weather history database for the weather conditions in past years. The results will help you decide how hot, cold, wet, or windy it might be!

Date:

Astronomy

Feb. 21, 2013 Rise Set
Actual Time 9:46 AM AKST 6:50 PM AKST
Civil Twilight 8:52 AM AKST 7:45 PM AKST
Nautical Twilight 7:52 AM AKST 8:45 PM AKST
Astronomical Twilight 6:52 AM AKST 9:45 PM AKST
Moon 2:03 PM AKST (2/21) 8:17 AM AKST (2/21)
Length of Visible Light 10h 52m
Length of Day
9h 04m
Waxing Gibbous, 85% of the Moon is Illuminated
Feb 21
Waxing Gibbous
Feb 25
Full
Mar 4
Last Quarter
Mar 11
New
Mar 19
First Quarter

Hourly Weather History & Observations

Time (AKST) Temp. Windchill Dew Point Humidity Pressure Visibility Wind Dir Wind Speed Gust Speed Precip Events Conditions
12:16 AM -23.8 °F -41.6 °F - N/A% 29.70 in 10.0 mi NNE 6.9 mph - N/A   Clear
12:36 AM -23.8 °F -43.2 °F - N/A% 29.70 in 10.0 mi NNE 8.1 mph - N/A   Clear
12:56 AM -23.8 °F -43.2 °F - N/A% 29.70 in 10.0 mi NNE 8.1 mph - N/A   Clear
1:16 AM -22.0 °F -39.4 °F -27.4 °F 76% 29.70 in 10.0 mi NNE 6.9 mph - N/A   Clear
1:36 AM -22.0 °F -39.4 °F - N/A% 29.70 in 10.0 mi NNE 6.9 mph - N/A   Clear
1:56 AM -20.2 °F -40.1 °F -25.6 °F 76% 29.69 in 10.0 mi NNE 9.2 mph - N/A   Clear
2:16 AM -20.2 °F -40.1 °F - N/A% 29.70 in 10.0 mi NNE 9.2 mph - N/A   Clear
2:56 AM -20.2 °F -40.1 °F - N/A% 29.70 in 10.0 mi NNE 9.2 mph - N/A   Clear
3:16 AM -20.2 °F -38.8 °F - N/A% 29.70 in 10.0 mi NNE 8.1 mph - N/A   Clear
3:36 AM -20.2 °F -37.3 °F -27.4 °F 69% 29.71 in 10.0 mi NNE 6.9 mph - N/A   Clear
3:56 AM -20.2 °F -30.9 °F - N/A% 29.71 in 10.0 mi ENE 3.5 mph - N/A   Clear
4:16 AM -22.0 °F -33.0 °F - N/A% 29.71 in 10.0 mi ENE 3.5 mph - N/A   Clear
4:36 AM -20.2 °F -30.9 °F -23.8 °F 83% 29.71 in 10.0 mi NE 3.5 mph - N/A   Clear
4:56 AM -20.2 °F -33.5 °F - N/A% 29.71 in 10.0 mi NE 4.6 mph - N/A   Clear
5:16 AM -20.2 °F -33.5 °F -22.0 °F 91% 29.71 in 10.0 mi NE 4.6 mph - N/A   Clear
5:36 AM -20.2 °F -37.3 °F - N/A% 29.70 in 10.0 mi NE 6.9 mph - N/A   Clear
5:56 AM -23.8 °F -37.7 °F -29.2 °F 76% 29.71 in 10.0 mi NE 4.6 mph - N/A   Clear
6:16 AM -23.8 °F -39.8 °F - N/A% 29.71 in 10.0 mi NNE 5.8 mph - N/A   Clear
6:36 AM -22.0 °F -42.3 °F -27.4 °F 76% 29.70 in 10.0 mi NNE 9.2 mph - N/A   Clear
6:56 AM -20.2 °F -41.3 °F - N/A% 29.70 in 10.0 mi NNE 10.4 mph - N/A   Clear
7:16 AM -20.2 °F -38.8 °F -22.0 °F 91% 29.70 in 10.0 mi North 8.1 mph - N/A   Clear
7:36 AM -20.2 °F -38.8 °F - N/A% 29.70 in 10.0 mi NNE 8.1 mph - N/A   Clear
7:56 AM -20.2 °F -38.8 °F -23.8 °F 83% 29.70 in 10.0 mi NNE 8.1 mph - N/A   Clear
8:16 AM -20.2 °F -38.8 °F - N/A% 29.70 in 10.0 mi NNE 8.1 mph - N/A   Clear
8:36 AM -20.2 °F -37.3 °F -25.6 °F 76% 29.70 in 10.0 mi North 6.9 mph - N/A   Clear
8:56 AM -20.2 °F -38.8 °F - N/A% 29.70 in 10.0 mi North 8.1 mph - N/A   Clear
9:16 AM -20.2 °F -38.8 °F -23.8 °F 83% 29.70 in 10.0 mi NNE 8.1 mph - N/A   Clear
9:36 AM -20.2 °F -37.3 °F - N/A% 29.69 in 10.0 mi NNE 6.9 mph - N/A   Clear
9:56 AM -20.2 °F -37.3 °F -23.8 °F 83% 29.69 in 10.0 mi NNE 6.9 mph - N/A   Clear
10:16 AM -20.2 °F -37.3 °F - N/A% 29.69 in 10.0 mi North 6.9 mph - N/A   Clear
10:36 AM -20.2 °F -30.9 °F -25.6 °F 76% 29.69 in 10.0 mi NNE 3.5 mph - N/A   Clear
10:56 AM -18.4 °F -31.4 °F -27.4 °F 63% 29.69 in 10.0 mi NE 4.6 mph - N/A   Clear
11:16 AM -18.4 °F -33.4 °F -27.4 °F 63% 29.69 in 10.0 mi NE 5.8 mph - N/A   Clear
11:36 AM -18.4 °F - - N/A% 29.70 in 10.0 mi Calm Calm - N/A   Clear
11:56 AM -22.0 °F - - N/A% 29.69 in 10.0 mi Calm Calm - N/A   Clear
12:16 PM -22.0 °F - -23.8 °F 91% 29.69 in 10.0 mi Calm Calm - N/A   Clear
12:36 PM -20.2 °F - - N/A% 29.70 in 5.0 mi Calm Calm - N/A   Clear
12:56 PM -20.2 °F -30.9 °F -22.0 °F 91% 29.70 in 10.0 mi SE 3.5 mph - N/A   Clear
1:16 PM -18.4 °F - - N/A% 29.70 in 10.0 mi Calm Calm - N/A   Clear
1:36 PM -18.4 °F - -20.2 °F 91% 29.70 in 10.0 mi Calm Calm - N/A   Clear
1:56 PM -18.4 °F -28.9 °F - N/A% 29.70 in 10.0 mi NNE 3.5 mph - N/A   Clear
2:16 PM -18.4 °F -31.4 °F -25.6 °F 70% 29.70 in 10.0 mi NE 4.6 mph - N/A   Clear
2:36 PM -16.6 °F -29.3 °F -25.6 °F 64% 29.70 in 10.0 mi NE 4.6 mph - N/A   Clear
2:56 PM -16.6 °F -31.3 °F -27.4 °F 58% 29.70 in 10.0 mi ENE 5.8 mph - N/A   Clear
3:16 PM -16.6 °F -31.3 °F -16.6 °F 100% 29.70 in 10.0 mi East 5.8 mph - N/A   Clear
3:36 PM -16.6 °F -29.3 °F - N/A% 29.70 in 10.0 mi ENE 4.6 mph - N/A   Clear
3:56 PM -16.6 °F - -18.4 °F 92% 29.70 in 10.0 mi Calm Calm - N/A   Clear
4:16 PM -14.8 °F -29.1 °F -27.4 °F 53% 29.70 in 10.0 mi North 5.8 mph - N/A   Clear
4:36 PM -14.8 °F -30.8 °F -25.6 °F 58% 29.69 in 10.0 mi NNE 6.9 mph - N/A   Clear
4:56 PM -14.8 °F -30.8 °F -27.4 °F 53% 29.70 in 10.0 mi NNE 6.9 mph - N/A   Clear
5:16 PM -14.8 °F -27.2 °F -25.6 °F 58% 29.70 in 10.0 mi North 4.6 mph - N/A   Clear
5:36 PM -14.8 °F -30.8 °F -22.0 °F 70% 29.69 in 10.0 mi North 6.9 mph - N/A   Clear
5:56 PM -14.8 °F -27.2 °F - N/A% 29.69 in 10.0 mi North 4.6 mph - N/A   Clear
6:16 PM -14.8 °F -27.2 °F -14.8 °F 100% 29.69 in 10.0 mi North 4.6 mph - N/A   Clear
6:36 PM -14.8 °F -27.2 °F - N/A% 29.69 in 10.0 mi NNW 4.6 mph - N/A   Clear
6:56 PM -14.8 °F -29.1 °F -22.0 °F 70% 29.70 in 10.0 mi NNW 5.8 mph - N/A   Clear
7:16 PM -18.4 °F -28.9 °F - N/A% 29.70 in 10.0 mi SSW 3.5 mph - N/A   Clear
7:36 PM -20.2 °F - - N/A% 29.70 in 10.0 mi Calm Calm - N/A   Clear
7:56 PM -22.0 °F - -27.4 °F 76% 29.69 in 10.0 mi Calm Calm - N/A   Clear
8:16 PM -22.0 °F -33.0 °F - N/A% 29.69 in 10.0 mi WNW 3.5 mph - N/A   Clear
8:36 PM -18.4 °F - - N/A% 29.69 in 10.0 mi Calm Calm - N/A   Clear
8:56 PM -18.4 °F - -22.0 °F 84% 29.69 in 10.0 mi Calm Calm - N/A   Clear
9:16 PM -20.2 °F -30.9 °F - N/A% 29.70 in 10.0 mi NW 3.5 mph - N/A   Clear
9:56 PM -23.8 °F -35.0 °F - N/A% 29.70 in 10.0 mi West 3.5 mph - N/A   Clear
10:16 PM -23.8 °F -35.0 °F - N/A% 29.69 in 10.0 mi WNW 3.5 mph - N/A   Clear
10:36 PM -23.8 °F -37.7 °F -29.2 °F 76% 29.70 in 10.0 mi NW 4.6 mph - N/A   Clear
10:56 PM -20.2 °F -35.5 °F - N/A% 29.70 in 10.0 mi NW 5.8 mph - N/A   Clear
11:16 PM -20.2 °F -33.5 °F -25.6 °F 76% 29.70 in 10.0 mi NW 4.6 mph - N/A   Clear
11:36 PM -20.2 °F -33.5 °F - N/A% 29.71 in 10.0 mi NW 4.6 mph - N/A   Clear
11:56 PM -20.2 °F -33.5 °F -27.4 °F 69% 29.71 in 10.0 mi NW 4.6 mph - N/A   Clear